Wind_Speed
38 36 35 35 32 29 30 34 36 37 39 42 44 45 48 50 51 55 56 54 58 61 54 41 35 37 40 38 35 35 34 36 39 37 33 34 37 36 33 30 29 28 28 27 27 26 26 26 24 23 23 23 23 23 21 19 16 16 17 17 17 17 16 15 15 15 16 16 16 17 17 18 19 21 21 22 25 27 29 32 34 34 34 33 32 32 31
38 37 37 37 34 30 30 32 31 32 35 39 43 45 46 48 51 54 54 52 52 55 58 55 47 39 34 34 36 38 39 40 38 33 32 34 36 38 37 34 32 31 30 29 29 27 28 28 26 24 23 23 23 24 22 19 17 16 15 15 15 16 16 16 16 16 16 16 16 17 18 19 20 21 22 24 26 29 31 33 35 36 36 35 34 34 33
40 37 35 37 39 36 32 31 30 31 32 34 37 41 43 45 49 53 54 55 55 51 52 58 59 51 40 33 35 37 40 43 41 37 38 38 37 39 40 37 35 34 32 31 30 28 29 29 27 26 24 24 24 24 22 19 18 17 15 14 15 17 17 17 16 16 17 17 18 19 20 22 23 24 25 27 29 31 33 35 38 38 38 37 35 35 34
42 37 35 37 38 38 38 38 36 34 33 31 32 37 41 44 48 52 54 56 60 58 54 57 63 62 56 51 46 42 40 42 43 44 44 41 38 37 38 39 39 36 33 32 31 29 29 29 28 27 25 25 25 23 20 18 18 18 16 16 18 19 19 18 17 18 18 19 19 21 23 24 26 27 28 29 32 34 36 38 41 42 41 39 37 35 34
42 39 37 35 34 38 43 42 39 38 36 33 31 34 38 41 43 47 52 56 56 56 57 60 63 63 62 61 58 55 50 45 44 45 43 39 36 37 37 40 41 38 33 32 31 30 30 29 28 28 26 25 24 21 19 18 19 18 18 19 20 21 19 18 18 20 20 21 22 24 26 27 29 30 30 31 34 36 39 41 44 45 44 41 37 35 33
42 39 36 32 33 39 40 35 34 38 40 38 36 36 36 38 39 39 43 46 46 47 52 57 60 61 61 59 57 57 58 56 51 47 43 38 37 40 41 41 40 37 32 31 32 31 30 30 30 30 28 26 24 22 20 19 19 18 19 20 22 22 21 20 21 23 23 24 25 26 28 30 31 33 33 34 36 39 42 44 46 46 44 40 37 35 32
42 39 37 36 37 37 34 31 30 31 33 36 40 40 37 38 40 38 36 37 38 41 46 49 51 55 58 58 55 54 56 58 58 53 45 39 39 42 43 41 37 32 29 30 31 31 31 31 32 31 30 28 26 24 21 21 20 19 20 22 24 25 25 24 25 26 27 28 28 30 31 33 34 36 36 37 39 42 44 46 48 46 41 37 34 33 32
44 42 41 41 39 34 32 33 31 27 29 35 40 41 38 38 39 38 38 38 36 36 39 41 43 48 52 53 53 52 51 52 56 56 49 41 40 43 44 41 34 28 26 29 31 32 32 33 33 33 32 30 28 25 24 23 22 22 23 24 26 29 29 29 28 28 29 30 31 33 35 36 37 38 39 40 42 43 46 49 49 44 38 34 32 31 31
45 43 43 41 38 37 36 34 34 35 36 37 38 38 36 36 38 39 39 38 36 34 33 34 39 44 47 46 47 49 49 48 51 55 53 46 43 44 45 41 32 26 28 32 33 33 34 34 35 35 33 32 30 28 27 26 25 25 26 27 29 31 32 33 31 30 31 32 33 35 37 39 40 41 43 43 44 45 48 51 49 42 36 33 31 29 30
45 43 44 42 39 40 40 38 39 40 37 35 35 36 33 31 34 39 38 36 36 37 37 37 40 43 43 41 42 47 49 47 48 51 51 48 47 46 44 39 33 30 31 34 34 34 34 36 36 35 35 34 32 30 30 28 28 29 29 31 32 33 35 36 35 34 33 34 35 37 40 41 43 46 47 46 46 48 50 52 48 41 37 34 31 29 30
45 44 45 43 40 41 41 40 40 39 38 37 36 35 33 30 32 38 40 36 35 38 40 41 42 43 42 39 40 44 46 44 44 46 45 45 47 45 42 38 36 35 35 36 35 35 35 36 37 37 38 36 34 33 33 32 31 32 33 34 35 36 37 39 39 37 35 36 38 39 41 43 46 49 49 47 48 51 53 51 46 40 37 35 32 31 31
43 43 44 43 42 43 41 39 40 41 41 40 37 35 34 31 32 37 39 37 36 35 35 37 39 40 41 38 37 40 41 40 43 44 42 41 42 43 42 41 39 39 40 39 37 36 36 37 38 39 39 37 36 37 37 36 36 36 37 38 38 39 40 42 42 41 39 39 40 41 43 46 48 49 48 47 50 53 53 49 44 39 37 36 35 34 33
48 45 44 43 43 43 40 38 39 40 39 36 34 34 33 31 30 33 34 35 35 33 31 34 36 35 35 36 37 38 38 39 42 42 39 40 42 44 45 45 43 43 42 40 39 39 39 39 39 40 40 40 40 40 40 40 40 40 40 41 41 42 43 44 44 43 42 42 43 44 45 48 48 48 49 50 52 54 52 47 42 38 37 37 37 36 35
53 51 47 44 43 41 38 37 38 37 36 35 33 30 30 30 30 31 32 32 33 32 31 34 34 30 28 31 36 39 40 39 38 36 36 39 43 45 47 47 47 46 45 43 42 41 40 40 41 42 42 43 43 42 43 44 44 43 44 45 45 46 46 46 46 44 43 44 46 47 48 48 48 49 51 52 53 52 48 44 40 37 37 38 38 36 36
53 52 50 47 44 42 40 40 40 37 34 34 33 28 27 30 30 29 29 29 30 31 31 31 30 29 30 32 35 37 40 39 34 32 33 37 41 43 45 47 49 49 48 46 44 43 43 43 42 43 44 46 46 45 45 45 46 47 48 49 49 49 49 49 46 44 44 46 48 49 49 49 49 50 52 53 52 49 45 42 39 39 39 40 38 37 37
52 51 51 49 47 46 45 43 41 37 32 32 32 31 31 32 31 27 26 28 29 30 31 30 30 31 33 32 29 30 34 36 34 32 33 35 37 40 43 47 50 51 49 47 45 45 45 44 43 43 44 46 47 47 48 48 49 51 52 53 54 54 53 52 47 43 44 47 49 49 49 49 50 52 54 53 50 47 44 42 41 41 41 40 39 38 38
51 51 52 51 50 50 47 42 38 36 33 32 34 36 36 35 33 30 27 27 28 30 33 33 33 33 32 30 27 27 30 33 34 34 33 33 34 38 41 45 48 49 48 47 46 44 43 42 42 43 44 45 47 49 50 51 52 54 55 57 57 56 56 53 46 42 44 47 48 48 49 50 51 53 54 52 48 46 44 42 42 42 41 41 40 39 39
51 52 53 52 51 50 46 41 38 36 34 33 34 37 39 38 36 33 30 28 29 33 36 35 34 33 31 30 30 29 29 31 34 36 35 34 35 36 39 42 45 47 48 47 45 44 43 43 43 43 44 46 47 49 51 52 54 56 58 59 57 56 56 53 47 44 45 46 47 47 49 50 51 52 52 50 48 45 44 43 43 43 41 41 41 41 41
51 51 52 52 52 50 45 41 38 36 36 36 35 36 37 37 36 34 32 31 31 34 36 36 36 34 32 31 31 29 28 32 36 38 38 37 36 37 39 41 44 46 47 47 47 46 45 45 45 44 45 46 48 50 52 53 55 57 58 58 57 56 55 52 47 45 45 46 47 48 49 50 51 51 51 50 47 46 45 44 43 41 40 41 43 42 42
53 51 50 49 49 48 46 43 40 38 37 36 34 33 35 37 37 35 33 32 32 33 35 36 36 34 33 32 32 30 30 33 37 39 39 38 37 38 39 40 43 45 46 47 48 47 47 47 46 46 46 48 50 52 53 53 54 56 58 59 59 58 56 52 47 46 46 47 48 48 49 50 50 50 50 49 47 46 46 44 42 40 41 43 44 44 42
51 50 47 45 44 45 45 43 41 38 36 34 34 35 37 38 38 36 34 33 33 33 34 35 35 34 34 33 32 30 30 32 35 38 38 37 37 37 38 39 41 43 44 46 48 48 47 47 47 47 48 49 51 52 53 53 54 55 57 58 58 57 55 52 49 47 47 48 48 49 49 50 50 49 49 49 48 47 46 44 42 42 42 44 45 44 43
46 47 47 46 45 44 43 41 40 39 37 35 36 38 38 38 38 37 36 34 33 32 33 34 34 34 34 34 33 33 33 33 34 35 36 37 38 39 40 41 42 43 44 46 47 48 48 48 48 48 49 50 51 52 53 53 54 56 57 57 57 56 53 51 49 48 48 49 50 50 50 50 50 49 50 50 49 47 46 45 44 43 43 44 44 44 44
40 39 39 42 42 40 39 39 39 40 39 38 37 37 37 37 38 37 35 34 32 32 34 36 35 34 37 37 36 36 37 36 35 36 37 38 40 41 43 44 45 45 46 47 47 47 48 49 49 49 48 49 50 51 52 53 54 57 58 57 57 56 53 50 49 48 49 50 50 49 49 50 50 50 51 50 49 47 46 46 45 44 43 43 43 42 42
41 34 31 32 33 33 34 35 36 38 38 37 35 35 35 36 36 35 35 34 33 33 35 37 36 36 38 41 40 40 39 38 38 39 40 41 42 43 44 45 46 47 48 47 47 48 48 48 48 47 47 48 49 50 51 53 54 56 57 57 56 55 54 50 48 48 49 50 49 48 48 50 51 51 50 49 48 47 46 46 45 44 43 43 42 42 41
43 37 31 29 30 31 32 34 35 35 34 33 32 33 34 35 37 37 36 36 36 36 37 39 39 39 40 43 45 45 42 41 40 41 42 43 44 44 45 46 47 47 47 47 47 48 47 46 46 46 46 48 49 50 52 53 54 54 55 56 55 54 51 48 47 48 49 48 48 48 50 51 51 50 49 48 47 47 47 46 46 45 45 44 43 41 40
37 34 31 30 31 32 32 33 33 32 30 29 31 33 34 37 39 40 39 38 38 39 40 41 41 42 44 46 48 48 47 46 46 46 46 47 46 46 47 48 47 46 46 47 47 47 45 44 45 47 47 48 49 50 50 51 52 53 55 56 54 51 48 46 46 47 48 48 49 50 50 50 49 49 48 48 48 47 47 47 47 46 45 43 42 41 41
34 33 32 31 31 32 32 32 31 29 27 28 30 31 34 39 42 42 41 42 42 42 42 43 44 46 48 48 48 48 49 49 48 47 47 48 48 46 47 49 48 46 45 46 47 48 48 47 47 48 49 48 48 49 50 51 51 51 51 50 48 46 46 46 47 48 48 50 51 51 50 50 49 49 48 48 48 48 47 47 47 46 44 43 43 42 42
36 35 33 32 33 34 33 32 30 28 27 28 29 28 31 38 46 47 43 42 44 45 45 44 44 47 50 50 47 46 47 48 47 46 46 48 48 47 47 48 49 48 48 48 48 48 48 48 48 47 47 47 49 50 51 51 49 47 44 43 43 44 45 47 48 49 50 51 51 50 49 49 48 47 47 47 47 47 47 47 47 45 44 44 44 44 43
35 34 32 31 33 34 33 32 31 30 28 28 30 30 30 34 41 46 45 44 44 46 47 46 46 48 51 50 46 45 45 46 47 48 49 48 49 49 49 49 50 50 50 50 50 49 48 47 46 45 46 49 51 51 49 46 44 44 43 43 43 45 47 48 49 50 50 50 49 48 47 46 46 46 47 47 48 48 47 47 47 45 45 45 44 44 44
31 30 30 29 31 32 33 32 31 31 30 29 30 33 34 32 31 34 39 44 46 46 47 48 47 48 50 48 46 45 46 46 48 50 51 50 50 51 52 51 51 52 52 52 52 51 50 48 47 48 51 52 52 49 45 42 42 42 43 44 45 46 48 49 50 49 48 47 46 45 45 45 46 47 47 47 47 47 47 47 46 45 44 44 44 44 44
27 27 27 27 28 30 31 31 31 31 32 31 30 31 35 35 31 29 31 37 42 45 47 48 49 50 51 51 50 50 51 51 51 52 54 54 54 55 55 54 54 55 56 56 56 54 52 50 49 50 51 50 48 46 43 42 42 43 45 46 47 48 48 48 47 46 45 45 45 45 46 46 46 46 46 46 46 46 46 46 45 44 44 44 44 44 43
28 28 27 26 27 27 28 28 29 29 31 31 31 30 30 31 30 29 28 30 33 38 41 43 45 48 50 51 50 50 52 54 55 55 55 55 55 55 56 57 57 57 56 54 52 49 47 46 46 46 45 44 44 43 43 43 44 45 46 47 47 46 44 43 43 43 44 45 46 46 46 46 45 45 45 45 45 45 45 45 44 44 44 43 43 42 41
29 29 29 28 27 27 27 26 27 27 29 31 33 32 30 28 27 28 29 30 31 33 35 36 37 39 41 42 41 40 42 45 47 48 47 45 43 44 47 50 50 48 46 44 43 42 42 42 42 42 42 42 42 42 43 43 44 44 44 44 43 42 41 41 42 43 45 45 46 45 45 45 44 45 45 45 44 44 45 44 44 43 42 41 41 39 36
25 26 27 27 28 27 27 26 26 26 29 31 33 34 33 31 30 29 29 30 32 34 35 35 36 37 37 38 39 39 39 39 39 40 40 38 37 37 40 42 43 42 41 40 40 39 39 39 39 39 40 40 40 41 41 41 42 42 41 41 40 41 41 43 43 44 44 44 44 44 44 44 43 43 44 44 44 45 45 44 43 42 40 39 38 36 34
21 22 23 24 26 27 27 26 26 26 28 31 33 33 32 32 32 33 33 32 32 33 35 37 38 39 39 39 40 40 39 38 37 37 38 38 37 38 39 41 42 41 39 37 36 36 36 37 37 38 38 38 39 39 40 40 40 40 40 40 41 42 42 43 43 43 43 42 42 42 42 43 43 43 43 43 43 43 43 41 40 39 38 38 38 37 35
15 19 21 23 23 24 25 25 26 27 29 31 33 33 33 32 31 33 36 37 35 34 35 37 38 38 38 38 38 38 37 36 35 35 34 34 34 34 35 36 36 35 34 34 34 35 36 36 36 36 36 37 38 39 39 40 40 40 40 41 41 42 42 42 42 41 41 41 41 41 41 41 41 42 41 41 40 40 39 38 37 37 37 37 37 35 33
10 13 17 19 21 22 22 23 24 26 29 32 34 34 33 31 29 31 36 40 40 38 37 37 38 38 38 38 38 38 36 33 31 30 30 29 29 29 30 30 31 32 33 33 34 34 35 35 35 36 37 38 39 39 40 40 40 39 40 40 40 40 40 40 40 40 39 39 39 38 38 39 39 39 39 39 38 37 36 36 35 36 36 35 33 31 30
9 11 14 17 20 22 22 23 24 25 29 33 35 34 31 29 29 30 33 36 39 40 40 39 40 40 40 39 38 36 33 30 28 28 27 27 27 28 28 29 30 31 31 32 32 33 34 35 36 37 38 38 39 39 40 39 38 38 38 39 39 39 39 39 38 38 37 37 36 36 36 36 37 37 37 36 35 35 34 34 34 34 33 33 33 32 31
11 12 13 14 16 18 20 21 22 24 26 29 31 31 29 28 29 30 30 30 31 32 33 32 32 33 32 32 31 30 28 28 27 27 26 26 27 27 28 28 29 30 31 32 33 34 35 36 37 37 38 38 37 38 37 37 36 36 37 37 37 37 37 36 36 36 35 34 34 34 35 35 34 34 32 32 32 33 33 32 32 32 33 33 32 30 28
13 13 13 13 13 14 14 15 16 17 19 20 22 22 22 22 23 24 24 24 23 23 23 23 24 24 24 24 25 25 25 25 25 25 25 26 27 28 29 30 31 32 33 34 35 35 35 36 36 36 35 35 35 35 34 34 34 34 35 35 35 34 34 34 34 33 33 32 32 33 32 32 32 31 31 30 31 32 30 29 30 31 31 30 28 26 26
15 15 15 15 14 13 13 14 14 14 14 14 14 15 15 16 17 17 18 18 18 19 19 19 19 20 21 21 22 22 23 23 24 26 27 28 30 31 31 32 32 32 33 33 34 34 34 33 33 33 33 32 32 32 32 32 32 32 32 32 32 31 31 32 32 31 31 31 31 31 31 30 31 31 31 31 31 30 29 28 28 29 28 27 25 25 25
16 17 17 16 16 15 15 16 16 15 14 14 13 13 12 12 13 14 14 15 15 16 17 17 18 19 20 21 22 23 24 25 26 27 28 29 29 30 30 30 30 30 31 31 31 31 31 31 31 31 31 31 30 31 31 30 30 30 30 30 30 30 31 31 31 31 30 31 31 30 30 30 31 31 30 30 30 30 29 29 28 27 26 25 25 25 26
14 16 17 17 17 16 17 17 17 17 17 16 15 15 14 14 14 14 14 14 15 15 16 17 18 19 20 21 22 23 24 25 25 26 26 26 27 27 27 27 27 28 28 29 29 29 29 30 29 29 29 29 29 29 29 29 29 30 30 30 30 31 31 31 31 30 30 30 30 30 30 30 31 30 30 30 30 30 29 28 27 26 25 25 26 26 27
11 13 16 17 17 17 17 17 17 17 17 17 16 15 15 15 16 16 16 16 16 16 16 17 17 18 18 19 20 21 21 22 22 23 23 24 24 25 25 25 26 27 27 28 28 29 29 29 28 28 28 28 27 28 28 29 30 30 30 30 30 31 31 31 30 30 30 30 30 30 30 30 30 29 29 29 29 29 28 27 27 26 26 26 27 27 27
7 10 12 15 16 16 16 16 16 16 17 16 16 15 15 15 15 16 16 16 16 16 17 17 17 18 18 19 20 20 20 21 22 22 23 23 24 25 25 26 26 27 27 28 28 29 29 29 28 28 28 28 28 28 29 30 30 30 30 30 31 31 31 31 31 30 30 30 30 29 29 29 29 29 28 28 28 27 27 26 26 26 26 27 26 25 24
6 8 10 11 13 13 14 14 14 15 15 15 15 15 14 14 14 15 15 16 16 17 17 18 18 19 19 20 20 21 21 22 22 23 23 24 25 25 26 27 27 27 28 29 29 29 28 28 28 28 29 29 29 29 30 31 31 31 31 31 31 31 31 31 30 30 30 30 29 29 29 29 29 28 28 27 27 27 27 26 25 25 24 23 22 21 20
7 7 8 8 9 10 10 11 11 12 13 13 13 13 13 14 14 14 15 15 16 17 18 18 19 19 20 21 21 22 22 23 23 24 24 25 26 27 27 28 28 29 29 29 29 29 29 29 29 29 30 30 30 30 31 31 32 31 31 31 31 31 30 30 30 30 29 29 29 29 29 29 29 29 29 28 28 27 26 24 22 22 21 20 20 19 19
7 7 7 7 7 8 8 9 10 11 12 12 12 13 14 15 15 15 16 17 18 19 19 19 20 21 22 23 23 23 23 24 25 25 25 26 27 28 28 29 29 29 29 29 29 29 29 29 29 30 30 30 31 31 31 32 31 31 31 31 30 30 30 30 30 29 29 29 29 29 29 29 29 28 27 26 25 23 22 21 20 20 20 20 20 20 20
7 7 7 8 9 9 9 10 11 13 14 14 14 15 16 16 17 17 18 19 20 21 21 21 22 23 24 25 25 24 25 25 26 26 26 27 28 28 28 29 28 29 29 30 30 30 29 30 30 30 30 30 31 31 32 31 31 31 30 30 30 30 30 30 30 29 29 29 28 28 28 27 26 25 24 23 22 21 21 20 20 20 21 21 22 22 23
9 9 10 11 11 12 11 12 14 15 16 16 17 18 18 18 19 19 20 21 22 23 23 24 24 25 26 26 26 26 26 27 27 27 27 28 28 28 28 29 28 29 30 30 30 30 30 30 30 30 30 30 31 31 32 32 31 31 30 30 30 30 30 29 29 28 28 27 26 26 25 25 24 23 22 22 22 22 22 23 23 23 24 25 26 26 26
11 12 12 13 14 14 14 15 16 17 18 18 18 18 19 19 20 21 21 22 23 24 24 24 24 24 25 26 27 27 28 28 28 28 28 28 28 28 29 29 29 29 30 30 30 30 30 29 29 30 30 30 31 32 32 32 31 30 29 29 29 29 29 28 28 28 27 27 26 25 25 24 24 24 24 24 25 26 26 27 27 27 28 28 29 29 29
14 15 15 15 16 16 16 16 17 18 19 19 19 19 19 20 20 21 22 23 24 24 24 24 24 24 24 26 27 28 28 28 28 28 28 28 29 29 29 29 29 30 30 29 30 30 30 30 31 31 31 31 31 32 31 31 31 30 29 29 29 29 29 29 28 28 28 28 28 27 27 27 27 27 27 28 29 30 30 30 30 30 30 31 31 31 30
Wind_Direction
238 230 226 229 229 224 227 235 240 238 231 225 224 228 231 231 231 236 239 241 243 240 232 222 219 231 243 242 231 224 220 223 231 234 232 231 230 223 212 209 216 223 228 233 236 239 243 249 254 255 258 265 270 274 277 274 268 261 256 253 250 248 249 251 257 266 274 280 286 289 292 293 295 298 302 306 307 308 311 312 312 313 314 313 309 305 301
240 235 229 228 225 223 229 233 235 238 237 233 231 230 231 232 233 235 236 237 242 245 242 234 222 219 233 248 245 234 226 226 227 229 232 230 225 221 214 210 213 219 224 229 232 235 239 246 251 254 258 263 267 272 274 271 265 259 254 249 244 244 247 253 260 270 279 288 294 297 298 299 300 303 306 308 307 307 309 310 309 309 311 311 307 301 298
236 236 231 230 229 226 228 232 233 233 235 237 238 237 234 233 234 236 237 238 238 241 244 243 236 226 219 229 243 240 229 225 223 224 228 228 224 222 219 215 215 218 223 229 232 235 240 245 250 253 256 260 264 268 268 265 260 254 246 240 240 244 250 258 267 276 284 292 298 301 303 303 303 305 307 308 308 308 310 309 308 308 308 307 304 298 295
233 235 232 230 232 231 228 228 228 228 231 232 235 237 236 235 238 240 239 239 241 240 240 243 244 240 230 228 236 240 230 220 220 225 229 229 227 226 224 222 220 218 221 228 234 239 243 247 250 252 254 257 260 262 260 256 252 245 238 238 245 251 257 265 274 281 286 293 298 302 305 305 305 306 307 309 309 309 310 309 309 309 307 304 301 296 294
230 233 234 231 233 235 233 233 233 228 226 229 233 237 240 240 242 245 243 242 244 245 243 244 248 249 245 239 238 242 243 235 226 227 232 233 232 229 227 227 224 218 219 226 233 239 244 247 248 250 251 251 252 254 252 248 247 245 242 248 255 260 264 270 278 282 287 293 297 300 303 304 304 305 305 306 306 307 309 310 311 309 306 303 299 295 293
229 231 234 232 232 235 236 240 242 232 224 224 228 235 242 244 243 246 249 249 248 247 246 248 250 250 249 246 241 239 244 246 242 237 234 234 235 234 232 230 224 218 218 226 233 238 241 242 243 244 245 245 245 248 250 250 253 256 257 260 264 267 269 273 278 282 287 291 295 298 300 302 304 304 303 302 303 305 309 311 311 309 305 301 297 293 293
228 229 231 230 230 233 236 239 242 239 233 228 224 227 235 242 242 242 246 250 252 251 249 250 252 252 250 248 245 240 238 242 245 243 236 232 235 238 236 231 222 216 219 227 233 237 238 238 240 241 242 241 243 248 254 258 262 266 267 269 272 274 275 277 282 286 288 290 293 296 298 300 302 303 301 300 300 304 309 311 310 308 303 298 294 293 293
226 227 228 230 230 231 235 240 238 235 233 229 224 223 226 231 237 239 239 242 247 253 255 252 250 251 250 248 247 244 240 239 242 243 239 232 232 236 236 229 217 211 219 227 231 234 235 236 238 240 241 243 244 249 257 262 265 268 271 274 276 278 280 283 287 290 290 291 293 295 296 298 299 301 301 300 300 303 308 310 309 306 301 294 291 293 293
224 226 229 231 232 230 230 234 232 227 229 230 227 227 227 226 228 232 236 239 238 242 249 249 245 248 253 251 246 244 242 239 240 242 241 236 233 236 236 227 212 207 217 225 229 232 233 235 237 240 244 246 248 252 259 263 266 269 272 273 275 278 281 285 288 290 290 290 291 293 295 296 297 299 300 300 302 303 306 308 307 304 298 292 291 293 293
225 227 229 229 230 228 225 226 226 226 230 232 231 233 237 235 228 226 230 236 237 236 237 240 244 250 255 251 244 241 241 240 239 242 242 238 234 233 231 222 211 209 216 224 229 230 232 236 238 242 246 248 250 255 259 263 266 269 272 273 273 275 279 282 285 288 288 288 289 291 294 295 296 298 299 300 302 303 305 306 304 300 296 292 292 294 294
223 226 227 228 230 231 229 229 231 232 235 238 239 240 243 241 234 230 230 230 233 236 237 239 244 251 254 248 240 239 241 241 241 242 241 236 233 230 224 215 210 211 216 222 225 225 228 235 239 243 247 250 253 256 257 261 265 268 270 271 272 273 275 277 281 284 285 286 287 289 291 293 295 298 299 300 301 302 303 303 300 297 296 293 292 294 294
221 224 227 228 232 235 234 234 237 239 239 243 248 248 245 241 237 237 237 232 229 232 238 241 243 247 250 246 240 239 242 242 241 240 235 229 227 225 219 212 209 212 217 221 224 224 228 234 240 244 248 252 254 255 256 259 263 265 267 269 270 271 272 273 276 280 282 283 283 285 288 291 295 298 299 299 299 300 302 300 296 294 294 292 292 294 295
224 227 228 230 233 235 234 234 238 240 240 244 249 250 248 246 244 242 242 239 236 237 239 242 244 246 248 248 243 238 236 235 236 235 228 221 220 220 218 214 211 212 217 221 225 227 230 233 238 243 247 251 252 253 254 257 259 262 265 267 268 269 269 270 273 276 280 282 283 285 288 291 294 297 297 297 298 299 299 297 293 291 292 292 292 293 294
226 228 231 232 233 235 234 234 239 241 241 243 246 248 248 248 250 250 247 242 242 244 244 244 247 247 246 246 242 235 230 230 232 230 223 217 216 218 219 217 213 213 216 221 226 230 232 233 236 239 243 248 251 251 253 255 258 261 263 265 265 266 267 269 270 274 279 282 284 286 289 291 294 295 295 295 297 297 296 293 291 290 291 291 291 292 292
226 228 230 231 233 236 236 236 239 238 238 241 243 246 248 248 248 252 252 248 245 246 247 250 253 251 245 242 239 235 232 229 225 222 218 215 214 216 218 218 216 215 218 222 227 231 233 234 236 239 242 246 249 251 254 256 258 261 263 263 264 265 266 266 268 272 276 280 283 285 287 290 293 295 295 295 295 294 292 290 291 291 292 292 291 291 292
229 230 231 231 233 236 237 239 241 241 242 246 245 242 243 245 245 247 249 248 247 247 247 248 250 251 250 247 242 238 236 231 222 216 214 213 213 215 217 219 219 218 220 223 227 230 232 235 239 242 244 247 249 252 254 257 259 261 263 264 264 264 263 263 266 271 276 280 283 284 286 289 292 292 293 293 291 290 288 289 291 293 293 292 292 292 293
229 229 231 232 234 236 238 238 240 242 243 244 241 238 237 239 241 242 241 242 244 245 243 241 242 247 252 252 244 236 233 230 222 213 210 212 214 216 219 221 221 220 221 223 226 230 234 237 241 243 246 248 250 251 254 256 258 261 262 263 263 263 264 266 270 274 278 280 282 283 285 289 290 291 292 291 288 287 287 289 292 294 294 294 293 294 295
223 225 228 231 233 236 237 237 237 239 239 236 236 236 236 236 238 236 234 236 241 241 238 236 237 242 247 249 243 233 226 223 218 211 208 212 214 217 220 222 222 221 222 224 227 230 234 237 241 243 246 248 250 252 255 257 259 260 260 260 261 262 265 269 273 276 279 279 280 282 285 287 289 290 291 289 287 286 288 290 292 294 295 295 295 296 298
223 225 228 230 232 235 237 237 239 241 241 239 238 237 236 236 236 232 228 232 238 238 235 234 235 238 242 242 238 229 220 218 216 211 209 211 214 217 219 221 222 222 222 225 228 231 234 238 241 244 246 248 251 253 255 256 257 259 260 261 261 263 266 269 272 275 277 278 279 282 285 286 288 289 289 288 287 287 289 290 292 294 294 294 295 298 299
224 226 229 231 233 236 238 239 241 243 246 247 245 242 238 236 236 233 229 231 237 237 235 234 235 238 240 237 229 220 215 214 214 212 212 212 215 217 219 222 223 223 224 227 230 233 237 240 243 246 248 250 251 251 252 254 256 258 261 264 265 268 270 272 273 274 275 276 279 282 284 286 287 288 288 288 288 288 289 290 291 292 293 294 295 298 298
226 228 230 231 232 234 236 238 241 244 248 250 249 245 240 237 237 238 235 232 237 239 237 234 236 238 240 235 224 214 212 211 211 212 214 215 216 218 220 223 225 225 227 228 230 234 237 240 243 246 249 250 251 251 253 255 257 261 265 269 272 273 274 273 272 272 273 276 280 282 284 285 286 287 288 288 288 288 288 288 289 291 292 293 294 296 297
226 229 231 231 231 233 235 239 243 246 247 248 246 244 242 239 239 240 236 232 233 236 235 234 235 234 233 230 223 215 213 211 209 210 215 218 219 220 220 222 224 226 227 229 231 234 236 239 241 244 247 248 250 251 254 256 260 264 268 271 273 273 273 271 270 271 274 277 280 282 283 284 285 286 287 288 288 287 287 288 290 292 292 292 292 294 295
221 223 226 227 230 233 235 238 242 244 246 247 245 244 244 243 241 238 233 229 229 231 232 232 231 227 225 225 223 219 216 213 212 214 219 221 222 222 223 224 225 226 227 228 231 233 236 239 242 244 246 248 250 252 255 258 262 265 268 270 270 270 270 269 269 272 275 278 279 280 280 282 284 286 287 287 287 286 287 289 291 292 292 292 292 293 294
217 217 219 222 226 229 231 234 237 239 244 246 245 244 243 241 238 232 226 224 226 228 229 229 227 223 222 222 221 218 216 213 214 218 221 222 222 223 224 225 225 225 225 227 229 232 234 238 242 244 246 249 252 255 259 263 266 267 268 269 269 269 269 268 269 272 275 276 276 277 279 281 284 286 286 286 286 287 289 290 291 291 292 293 294 294 295
216 219 221 222 224 226 228 231 234 237 242 244 244 244 241 237 234 230 224 223 224 223 224 226 226 223 222 221 219 217 214 212 212 213 215 216 216 216 218 220 220 221 222 224 227 230 233 237 241 244 247 252 257 261 264 266 267 268 268 269 269 269 270 269 269 271 273 273 274 277 280 282 284 285 286 286 287 289 290 290 291 292 293 294 294 294 293
214 218 220 219 221 224 227 232 236 239 243 244 241 239 237 233 231 228 223 222 224 223 221 223 224 224 224 222 217 212 209 206 204 204 206 208 210 211 213 216 217 219 223 227 228 231 235 239 242 246 252 257 262 264 265 265 266 268 269 269 268 267 268 268 269 269 271 273 276 279 281 283 284 285 286 287 288 289 289 291 292 293 294 295 294 293 291
215 218 221 222 223 225 228 232 237 240 243 242 238 237 238 233 226 222 219 220 223 224 223 223 225 226 223 216 209 207 207 207 207 207 208 210 213 216 218 221 224 229 234 238 239 240 243 245 247 251 256 260 262 264 265 265 267 270 270 267 265 264 265 267 268 270 272 275 278 280 282 283 284 285 286 287 288 289 290 291 293 294 294 293 292 291 290
220 224 226 225 224 225 227 230 234 237 239 238 234 234 236 229 221 218 220 221 222 223 223 224 226 224 217 211 207 207 210 212 213 215 217 217 220 223 226 229 233 237 240 243 245 247 248 249 252 254 257 260 264 266 267 266 268 269 269 266 264 264 265 267 270 272 274 276 278 280 281 283 284 286 287 287 288 289 291 292 293 293 292 292 291 291 290
223 226 227 225 222 223 226 229 231 234 236 235 230 227 228 223 218 218 221 222 221 222 223 224 225 221 214 212 213 214 215 216 218 220 222 223 224 227 229 232 234 237 241 244 247 249 250 253 255 256 259 263 267 268 267 266 266 267 267 265 265 266 268 270 272 273 275 276 278 280 282 284 285 286 286 288 289 290 291 292 292 291 291 291 291 290 290
217 221 224 222 220 222 224 226 229 230 232 233 231 227 225 224 221 220 221 221 221 222 222 224 225 222 217 216 217 218 219 221 222 224 226 228 228 228 230 232 235 238 241 244 246 248 250 252 253 255 260 264 265 265 265 264 264 265 266 267 268 269 271 272 273 274 276 278 280 282 283 284 285 286 287 288 289 290 290 291 291 290 290 290 290 291 290
213 217 220 220 220 222 224 226 228 229 229 231 232 231 230 230 231 230 227 224 222 220 219 220 222 221 220 220 221 221 222 224 226 227 229 232 234 234 235 237 238 240 241 244 246 247 248 248 250 254 258 259 259 260 261 263 264 266 267 269 270 270 271 272 274 276 278 280 281 282 283 284 286 287 287 288 288 289 289 289 289 289 289 290 291 291 289
220 222 223 223 223 225 228 229 230 231 231 231 232 233 234 234 233 231 230 229 226 223 220 219 220 219 219 219 221 222 224 226 228 228 228 230 234 236 237 238 240 242 243 244 245 246 247 249 252 255 255 255 255 258 260 262 265 267 268 268 269 270 271 273 275 278 279 281 281 283 284 285 285 286 286 287 287 288 288 289 289 289 289 290 290 290 289
224 225 227 229 230 231 233 236 236 235 233 232 232 233 234 234 232 229 227 226 227 228 228 229 229 227 226 226 228 230 231 232 232 231 230 232 235 237 238 240 242 244 245 246 247 249 250 251 252 252 253 254 257 260 263 265 266 267 267 268 270 271 274 276 277 278 279 280 281 283 283 284 284 285 286 287 287 288 289 290 290 290 290 290 289 290 289
222 225 228 231 232 234 235 238 241 240 237 234 233 233 234 234 234 233 229 226 225 227 229 232 233 234 234 234 235 237 240 241 241 240 241 243 245 244 243 244 245 246 248 249 249 249 249 250 251 253 255 259 262 264 265 266 267 267 268 271 273 274 276 277 277 278 279 280 281 282 283 283 284 286 287 287 288 289 290 290 291 291 291 290 290 290 289
226 227 229 230 230 231 232 236 241 243 242 239 237 235 234 235 235 233 231 230 229 229 231 232 234 235 237 239 239 240 243 245 246 247 247 248 248 247 246 246 246 247 248 248 249 249 250 252 255 258 261 263 264 265 265 266 267 268 271 273 274 275 276 277 277 279 280 280 281 282 282 283 285 286 287 287 288 289 289 290 291 291 290 290 290 291 289
222 225 229 230 230 230 230 233 238 242 244 245 243 239 238 240 239 235 232 232 233 234 235 235 236 237 239 241 242 243 243 244 244 244 244 244 243 242 242 242 242 243 245 247 250 253 255 257 259 261 262 263 264 265 266 267 269 271 273 274 275 275 276 276 278 279 279 280 281 282 283 284 285 286 286 286 287 288 289 289 290 289 289 289 290 291 290
205 210 218 222 225 228 230 233 237 240 243 244 242 239 238 239 238 234 232 232 234 237 239 240 240 239 239 239 240 240 239 237 235 234 234 234 235 236 237 239 241 243 245 249 251 254 256 258 260 262 263 263 265 266 268 270 272 273 274 274 274 275 276 276 277 278 279 280 281 281 282 283 284 284 285 286 286 287 289 289 288 288 288 288 289 289 288
213 206 204 205 208 210 213 216 220 224 229 230 228 227 227 226 224 223 224 225 227 229 231 232 232 231 230 230 231 230 228 226 225 226 228 230 232 235 237 239 242 245 248 250 253 255 257 259 261 262 263 264 266 268 269 271 272 272 272 273 274 274 275 276 277 278 278 279 280 281 282 282 283 285 286 286 286 287 288 288 287 287 286 286 287 287 287
236 226 215 208 207 207 206 206 207 210 214 216 214 212 212 213 213 214 216 217 216 215 215 216 217 216 215 216 218 219 220 221 224 226 229 232 236 239 242 245 247 250 252 254 255 257 259 260 261 262 264 265 266 267 268 269 270 270 271 272 272 273 274 275 276 276 277 278 279 280 281 282 283 284 284 283 284 286 286 286 285 285 284 284 285 285 284
243 237 229 222 219 217 216 215 213 210 209 208 204 200 199 200 202 205 209 211 212 210 207 207 208 209 210 212 214 217 220 224 227 230 233 237 241 244 246 249 251 253 254 256 257 258 259 259 260 261 262 263 264 265 266 267 267 267 268 270 271 272 273 274 274 275 276 277 278 279 280 281 281 281 281 281 282 284 283 282 282 282 282 282 281 281 281
241 239 234 229 224 219 217 218 219 217 212 208 202 196 193 192 194 197 201 205 209 212 211 210 211 212 214 217 220 223 226 230 234 238 241 243 245 247 249 250 252 254 255 256 257 257 257 257 258 260 261 262 263 264 264 264 265 266 267 269 270 271 272 272 274 275 276 276 277 279 280 280 280 281 281 280 279 279 279 280 280 281 280 280 279 280 281
238 236 234 231 226 223 220 220 221 221 219 215 211 208 206 203 203 205 208 212 216 220 223 224 225 226 227 229 231 233 236 239 241 243 244 246 247 249 250 251 252 253 254 255 255 256 258 259 260 261 262 263 263 264 264 265 266 267 268 269 269 270 270 272 273 274 276 277 278 279 280 279 279 280 279 277 276 277 278 279 279 279 278 279 280 281 281
240 237 236 233 230 227 224 224 225 226 226 224 221 218 218 219 218 219 220 222 225 229 231 233 235 236 236 238 239 240 241 243 245 247 248 249 250 251 252 253 254 255 256 258 259 260 261 262 263 263 264 264 264 265 266 267 268 268 268 268 269 269 270 272 274 275 276 277 278 279 279 278 278 278 277 276 276 277 278 278 277 278 279 281 281 282 282
245 241 237 235 234 231 229 228 229 230 231 233 232 230 229 229 230 231 233 235 237 238 240 241 241 242 243 244 245 246 247 249 251 252 254 255 256 257 258 259 259 260 261 261 262 263 263 263 263 264 264 265 265 266 267 267 267 268 268 269 270 270 272 273 274 275 276 276 277 277 277 277 276 276 276 275 276 277 276 276 277 278 279 281 281 282 282
249 246 240 237 235 234 232 231 232 233 235 238 240 241 242 243 243 243 245 246 247 249 249 249 249 248 248 248 249 250 252 254 255 257 258 260 261 262 262 262 262 263 263 262 262 263 263 263 263 263 263 264 264 264 265 266 267 268 269 269 270 271 272 273 273 274 274 275 275 275 275 275 275 274 274 274 275 275 275 276 278 279 279 280 280 281 281
252 253 247 242 239 239 238 238 238 239 241 243 245 248 250 252 252 252 252 252 251 251 251 250 250 250 250 250 251 252 254 255 257 258 260 261 261 262 262 262 262 262 261 261 261 261 261 262 262 262 262 263 263 263 264 264 265 266 267 268 269 270 271 271 272 272 272 273 273 273 273 273 273 273 273 273 274 274 275 277 278 277 277 278 278 277 276
259 255 250 246 244 243 244 246 246 246 247 248 249 251 253 254 254 255 255 255 254 253 251 250 251 251 251 251 251 251 253 254 255 257 258 259 259 259 258 258 258 259 259 259 260 260 260 261 261 261 262 262 263 263 263 264 265 266 267 268 269 270 270 270 271 271 271 272 272 272 272 272 272 273 273 273 274 275 275 275 273 273 273 273 274 274 274
268 264 261 258 254 251 251 254 255 255 254 253 252 252 252 253 254 255 255 255 254 254 253 252 252 252 253 254 254 254 255 256 257 257 258 257 257 257 256 256 256 257 257 257 258 258 259 260 261 261 262 263 263 264 264 265 267 268 269 269 269 270 270 270 271 272 272 272 272 271 271 271 271 271 272 272 272 271 271 269 268 269 271 271 272 272 272
268 265 264 264 262 259 256 256 257 258 258 256 255 254 253 252 252 253 254 255 256 256 257 256 255 255 255 256 257 258 258 258 258 258 258 258 257 257 257 257 256 256 257 257 258 258 259 260 261 262 262 263 264 266 267 267 268 268 269 269 269 270 270 271 271 270 270 270 269 268 268 268 268 268 269 269 268 268 267 267 268 269 270 270 271 271 271
275 270 265 263 263 262 258 255 254 255 255 254 254 255 256 256 255 254 255 256 258 259 260 260 260 260 260 260 259 258 257 256 256 256 257 257 258 258 257 257 257 257 258 258 259 259 260 262 263 264 265 266 267 268 268 269 269 269 269 269 269 269 269 269 268 267 266 265 264 263 262 263 263 264 265 265 266 267 267 268 268 269 269 270 270 271 271
278 275 269 264 263 263 262 260 258 257 256 256 256 258 260 261 261 260 260 260 260 260 261 262 263 263 262 261 259 257 256 255 256 256 257 258 258 259 259 260 260 260 261 262 263 264 264 265 266 267 268 268 269 269 269 269 270 269 268 268 267 267 266 265 263 262 261 260 259 259 259 260 262 263 265 265 267 268 269 269 269 270 270 270 270 271 271
274 274 273 271 269 268 266 265 265 264 263 262 261 259 260 261 261 261 261 261 261 261 262 262 263 262 260 258 257 257 257 257 257 258 258 259 259 260 261 263 263 264 265 266 267 267 267 267 267 268 268 269 269 269 269 269 269 269 268 266 265 264 262 261 259 258 259 259 259 260 262 262 263 264 266 267 268 269 270 270 271 271 271 271 272 272 272
Height
5776 5779 5782 5784 5786 5790 5793 5792 5792 5795 5798 5800 5802 5803 5806 5811 5811 5811 5816 5819 5818 5823 5831 5836 5840 5841 5841 5842 5843 5846 5849 5850 5850 5852 5855 5857 5857 5858 5859 5860 5862 5863 5864 5867 5868 5869 5870 5871 5872 5874 5875 5876 5877 5877 5877 5877 5877 5878 5878 5879 5879 5879 5880 5880 5881 5881 5880 5880 5880 5880 5880 5880 5880 5879 5880 5879 5877 5876 5875 5873 5870 5869 5867 5866 5864 5861 5859
5770 5773 5776 5779 5781 5784 5787 5787 5789 5791 5793 5794 5796 5798 5801 5804 5805 5807 5812 5814 5814 5817 5822 5827 5833 5837 5839 5840 5839 5840 5844 5845 5847 5850 5851 5851 5852 5853 5854 5856 5857 5858 5860 5862 5864 5865 5866 5867 5869 5870 5872 5873 5874 5874 5874 5874 5874 5875 5875 5876 5876 5877 5878 5878 5878 5878 5878 5877 5877 5877 5877 5877 5876 5876 5876 5875 5874 5872 5871 5869 5866 5864 5863 5861 5859 5857 5855
5764 5767 5771 5773 5775 5778 5781 5783 5786 5788 5789 5790 5791 5793 5796 5798 5799 5802 5806 5807 5808 5812 5815 5818 5824 5830 5834 5835 5835 5836 5838 5840 5843 5846 5845 5846 5848 5849 5850 5852 5853 5854 5856 5858 5860 5862 5863 5864 5866 5867 5869 5870 5870 5871 5871 5871 5872 5872 5873 5874 5874 5874 5875 5875 5875 5875 5875 5874 5874 5874 5874 5873 5873 5873 5872 5872 5870 5868 5867 5865 5863 5860 5858 5857 5855 5852 5851
5758 5762 5765 5767 5770 5772 5773 5776 5779 5782 5784 5786 5787 5788 5790 5791 5793 5796 5799 5799 5801 5807 5810 5810 5813 5820 5825 5829 5831 5832 5833 5836 5838 5839 5839 5842 5845 5846 5848 5849 5849 5850 5852 5855 5858 5859 5860 5861 5862 5864 5865 5867 5867 5868 5868 5869 5869 5869 5870 5871 5871 5872 5872 5872 5872 5872 5871 5871 5871 5871 5870 5870 5870 5869 5869 5867 5866 5864 5863 5861 5859 5856 5854 5852 5850 5848 5847
5754 5758 5760 5763 5766 5765 5764 5766 5771 5775 5778 5781 5784 5785 5785 5786 5788 5789 5790 5793 5797 5802 5804 5803 5805 5811 5816 5822 5827 5828 5829 5831 5834 5834 5836 5840 5843 5844 5844 5845 5845 5846 5848 5851 5854 5856 5857 5858 5859 5860 5862 5863 5864 5865 5865 5866 5866 5867 5868 5869 5868 5868 5869 5869 5869 5868 5868 5868 5868 5867 5867 5866 5866 5865 5865 5863 5861 5860 5858 5857 5854 5852 5849 5847 5845 5843 5842
5750 5754 5756 5759 5759 5757 5759 5764 5767 5769 5772 5775 5779 5782 5783 5785 5786 5786 5786 5790 5793 5796 5797 5798 5800 5803 5807 5813 5819 5824 5824 5825 5828 5830 5833 5837 5839 5839 5839 5841 5842 5842 5844 5847 5850 5852 5853 5854 5855 5856 5858 5859 5861 5861 5862 5863 5864 5864 5865 5865 5865 5865 5865 5865 5865 5865 5865 5865 5865 5864 5863 5863 5862 5861 5860 5859 5858 5856 5854 5852 5850 5847 5845 5842 5840 5838 5837
5745 5749 5750 5751 5750 5752 5758 5762 5762 5764 5767 5769 5772 5775 5780 5783 5783 5784 5786 5787 5788 5789 5791 5793 5795 5796 5800 5805 5810 5815 5819 5820 5822 5825 5828 5832 5835 5834 5834 5837 5838 5838 5840 5844 5846 5848 5849 5850 5851 5852 5854 5856 5857 5858 5859 5860 5861 5861 5861 5861 5861 5861 5862 5862 5862 5862 5862 5861 5861 5860 5859 5858 5858 5857 5856 5855 5853 5851 5849 5847 5846 5843 5841 5838 5836 5834 5833
5739 5742 5743 5744 5746 5751 5755 5755 5757 5759 5760 5761 5762 5764 5770 5776 5778 5781 5783 5784 5785 5786 5786 5788 5790 5789 5792 5798 5802 5807 5812 5815 5818 5819 5822 5826 5829 5828 5829 5832 5832 5833 5837 5840 5842 5844 5845 5846 5847 5848 5850 5852 5853 5854 5856 5856 5857 5858 5858 5858 5858 5858 5858 5858 5859 5858 5858 5858 5857 5856 5855 5854 5854 5852 5851 5850 5848 5847 5845 5843 5841 5839 5837 5835 5833 5831 5829
5734 5736 5738 5740 5743 5746 5748 5749 5750 5751 5750 5752 5753 5755 5760 5766 5769 5773 5776 5778 5781 5783 5784 5785 5785 5784 5786 5791 5796 5800 5805 5809 5812 5813 5816 5821 5824 5823 5825 5827 5828 5829 5833 5836 5838 5840 5841 5842 5843 5844 5846 5847 5849 5851 5852 5853 5853 5854 5854 5854 5854 5854 5854 5854 5854 5854 5854 5854 5853 5852 5851 5850 5849 5848 5846 5845 5844 5842 5840 5838 5836 5835 5833 5831 5829 5827 5825
5729 5732 5734 5735 5737 5739 5741 5741 5741 5742 5745 5748 5750 5752 5756 5760 5763 5766 5769 5772 5774 5777 5779 5780 5779 5779 5780 5784 5789 5794 5797 5801 5805 5807 5811 5815 5817 5817 5820 5823 5823 5825 5829 5832 5834 5836 5837 5837 5838 5840 5841 5843 5845 5847 5848 5849 5850 5850 5851 5851 5851 5851 5850 5850 5850 5850 5850 5850 5849 5848 5848 5846 5845 5843 5842 5841 5839 5837 5835 5833 5831 5830 5829 5827 5824 5822 5821
5724 5726 5728 5730 5732 5734 5736 5737 5738 5740 5742 5744 5747 5750 5753 5756 5759 5759 5759 5762 5764 5767 5770 5773 5773 5774 5774 5777 5784 5788 5790 5794 5798 5801 5805 5808 5809 5812 5816 5818 5819 5822 5825 5828 5830 5832 5833 5833 5835 5836 5837 5839 5842 5843 5844 5845 5846 5846 5847 5847 5847 5847 5846 5846 5846 5846 5846 5846 5845 5844 5843 5842 5840 5839 5837 5836 5835 5832 5830 5829 5827 5825 5824 5822 5820 5818 5816
5719 5721 5723 5725 5728 5729 5730 5734 5736 5737 5739 5741 5744 5747 5748 5750 5753 5753 5754 5756 5757 5759 5763 5765 5766 5767 5769 5773 5779 5782 5784 5788 5791 5793 5798 5802 5803 5806 5810 5813 5815 5818 5821 5823 5826 5827 5829 5830 5831 5832 5834 5836 5838 5839 5840 5841 5842 5842 5842 5842 5842 5842 5842 5841 5841 5841 5841 5841 5841 5840 5839 5837 5835 5834 5833 5831 5830 5827 5825 5824 5822 5820 5819 5817 5815 5813 5811
5714 5716 5718 5721 5723 5723 5726 5729 5731 5732 5734 5737 5738 5740 5743 5746 5748 5749 5751 5752 5754 5756 5759 5760 5760 5762 5765 5769 5772 5774 5778 5780 5782 5787 5793 5795 5797 5801 5805 5808 5811 5814 5816 5819 5821 5823 5824 5826 5827 5828 5830 5831 5833 5834 5835 5836 5836 5837 5837 5837 5838 5837 5836 5836 5836 5836 5836 5836 5836 5835 5834 5832 5831 5830 5828 5826 5825 5822 5820 5819 5817 5816 5814 5811 5809 5807 5805
5710 5712 5714 5717 5718 5719 5721 5724 5726 5728 5730 5731 5732 5735 5739 5742 5744 5745 5746 5748 5750 5752 5754 5755 5756 5759 5762 5764 5765 5766 5769 5772 5776 5782 5787 5789 5792 5796 5799 5803 5807 5809 5811 5814 5816 5818 5820 5822 5823 5824 5825 5826 5828 5829 5830 5830 5831 5832 5832 5832 5832 5832 5831 5831 5831 5831 5831 5831 5830 5829 5828 5827 5826 5824 5823 5821 5819 5818 5816 5814 5813 5811 5809 5806 5804 5802 5800
5705 5708 5710 5712 5713 5714 5716 5718 5720 5723 5726 5727 5730 5733 5735 5736 5738 5740 5742 5745 5747 5748 5749 5751 5753 5755 5757 5758 5758 5760 5764 5768 5772 5777 5780 5783 5787 5792 5796 5799 5802 5804 5807 5809 5812 5814 5816 5817 5818 5819 5821 5822 5823 5824 5825 5826 5827 5827 5827 5827 5826 5826 5826 5826 5825 5826 5826 5825 5825 5824 5823 5822 5820 5819 5817 5815 5814 5813 5811 5810 5808 5806 5804 5801 5799 5797 5795
5701 5704 5706 5707 5708 5708 5709 5713 5716 5719 5723 5725 5727 5730 5730 5730 5733 5736 5738 5741 5743 5744 5746 5747 5748 5750 5751 5751 5753 5757 5761 5764 5767 5771 5775 5779 5783 5787 5790 5793 5796 5799 5802 5804 5807 5808 5810 5812 5814 5816 5817 5818 5819 5820 5821 5821 5821 5821 5821 5821 5820 5820 5820 5820 5820 5821 5821 5820 5819 5819 5817 5816 5815 5813 5812 5810 5809 5808 5806 5805 5803 5801 5799 5796 5794 5792 5790
5695 5698 5699 5701 5702 5702 5704 5709 5713 5715 5718 5721 5722 5724 5725 5725 5727 5730 5733 5736 5738 5740 5741 5741 5742 5744 5745 5747 5749 5752 5755 5758 5761 5765 5770 5774 5778 5781 5785 5788 5791 5795 5797 5799 5802 5804 5807 5809 5810 5811 5812 5813 5814 5815 5815 5815 5816 5816 5815 5815 5814 5814 5814 5814 5815 5816 5815 5815 5814 5813 5811 5810 5809 5808 5806 5804 5803 5802 5800 5799 5798 5796 5794 5792 5789 5787 5786
5687 5690 5692 5695 5697 5697 5700 5705 5709 5710 5712 5715 5717 5718 5719 5720 5722 5725 5727 5730 5733 5735 5736 5737 5737 5738 5740 5742 5743 5745 5748 5752 5756 5760 5764 5768 5773 5776 5780 5784 5787 5790 5792 5795 5798 5800 5802 5804 5805 5806 5807 5808 5809 5809 5809 5810 5810 5809 5809 5808 5808 5807 5808 5809 5810 5810 5809 5808 5808 5806 5805 5804 5803 5802 5800 5799 5797 5796 5795 5794 5792 5791 5789 5787 5784 5782 5781
5682 5684 5687 5689 5691 5693 5696 5701 5704 5706 5707 5709 5711 5713 5714 5715 5717 5720 5721 5724 5727 5729 5731 5732 5732 5733 5735 5737 5738 5741 5744 5747 5751 5755 5759 5763 5767 5771 5775 5778 5781 5784 5787 5790 5792 5795 5797 5798 5800 5801 5802 5803 5803 5804 5804 5804 5804 5803 5802 5802 5802 5802 5803 5804 5804 5804 5803 5802 5801 5800 5799 5798 5797 5796 5795 5793 5792 5790 5789 5788 5787 5786 5784 5781 5778 5776 5776
5677 5680 5682 5685 5689 5691 5693 5697 5700 5702 5703 5704 5705 5707 5708 5710 5712 5715 5717 5719 5721 5724 5726 5727 5728 5730 5732 5733 5734 5737 5740 5743 5747 5750 5754 5759 5762 5766 5770 5773 5777 5780 5783 5785 5788 5790 5792 5794 5795 5796 5797 5798 5798 5799 5799 5800 5800 5799 5798 5798 5798 5798 5798 5798 5798 5797 5797 5796 5796 5795 5794 5793 5792 5790 5789 5787 5786 5785 5784 5783 5782 5781 5779 5776 5773 5771 5770
5673 5676 5679 5682 5686 5687 5689 5692 5695 5698 5699 5700 5701 5702 5704 5706 5708 5710 5714 5716 5717 5719 5722 5723 5725 5728 5729 5730 5732 5735 5737 5740 5743 5747 5751 5755 5758 5762 5766 5769 5772 5775 5778 5780 5783 5785 5787 5788 5789 5791 5792 5793 5794 5794 5795 5796 5796 5796 5795 5794 5794 5794 5793 5793 5792 5792 5791 5790 5790 5789 5788 5787 5786 5785 5783 5782 5780 5779 5778 5777 5776 5775 5774 5771 5769 5767 5766
5670 5672 5675 5677 5680 5683 5686 5689 5691 5693 5695 5697 5698 5699 5700 5702 5703 5705 5708 5710 5713 5716 5719 5721 5723 5725 5726 5727 5730 5732 5734 5737 5740 5743 5747 5750 5754 5757 5760 5763 5766 5769 5772 5774 5777 5779 5781 5782 5783 5785 5786 5788 5789 5790 5790 5791 5791 5790 5789 5789 5789 5788 5787 5788 5787 5786 5785 5785 5784 5784 5782 5781 5780 5779 5777 5776 5775 5774 5772 5771 5771 5769 5768 5767 5765 5764 5762
5666 5668 5671 5674 5676 5680 5683 5686 5687 5689 5690 5691 5693 5694 5696 5697 5699 5700 5703 5705 5709 5712 5715 5717 5719 5721 5722 5724 5726 5728 5731 5734 5737 5739 5743 5746 5749 5752 5755 5757 5760 5763 5766 5768 5771 5773 5774 5776 5777 5779 5781 5782 5783 5784 5785 5785 5785 5784 5783 5782 5782 5781 5781 5782 5781 5780 5780 5779 5779 5778 5776 5775 5774 5773 5772 5771 5770 5768 5767 5766 5765 5764 5763 5761 5760 5759 5758
5662 5665 5668 5671 5673 5676 5679 5681 5683 5684 5685 5686 5688 5690 5692 5693 5695 5696 5698 5700 5703 5707 5710 5713 5715 5717 5719 5721 5723 5725 5728 5730 5733 5735 5738 5742 5745 5748 5750 5753 5755 5758 5760 5763 5765 5767 5768 5770 5772 5773 5775 5776 5778 5779 5779 5779 5779 5778 5776 5776 5775 5775 5775 5775 5775 5774 5774 5773 5773 5772 5771 5769 5768 5767 5766 5765 5764 5762 5761 5760 5759 5758 5757 5755 5754 5753 5753
5659 5662 5665 5668 5670 5672 5674 5676 5678 5679 5681 5682 5683 5685 5687 5689 5691 5693 5695 5696 5699 5702 5705 5708 5711 5713 5715 5717 5719 5722 5724 5726 5728 5731 5734 5737 5740 5743 5745 5748 5750 5752 5755 5756 5758 5760 5762 5764 5766 5767 5769 5771 5772 5773 5773 5772 5772 5771 5770 5769 5769 5769 5769 5769 5768 5768 5767 5767 5766 5766 5765 5764 5763 5762 5760 5759 5758 5756 5755 5754 5753 5752 5751 5749 5748 5747 5747
5657 5659 5662 5665 5667 5669 5671 5672 5674 5676 5677 5678 5679 5681 5683 5685 5687 5689 5691 5693 5695 5697 5699 5702 5706 5709 5711 5713 5715 5717 5720 5722 5724 5726 5729 5732 5735 5737 5739 5742 5744 5746 5749 5750 5752 5754 5756 5758 5760 5762 5764 5765 5766 5766 5766 5766 5765 5765 5764 5763 5763 5763 5763 5762 5762 5761 5761 5761 5760 5760 5759 5758 5757 5756 5754 5753 5752 5751 5749 5748 5746 5745 5744 5743 5742 5741 5740
5654 5656 5659 5663 5665 5667 5669 5670 5672 5673 5674 5675 5676 5677 5679 5681 5683 5685 5686 5688 5691 5694 5696 5699 5702 5705 5707 5710 5712 5713 5715 5718 5720 5723 5726 5728 5731 5733 5735 5737 5739 5742 5744 5746 5748 5750 5752 5754 5755 5757 5758 5759 5759 5759 5759 5759 5758 5758 5756 5756 5756 5757 5757 5756 5756 5755 5755 5755 5754 5754 5753 5752 5751 5750 5748 5746 5746 5745 5744 5742 5741 5739 5738 5736 5735 5734 5733
5652 5654 5657 5660 5662 5664 5666 5668 5669 5670 5671 5672 5674 5675 5676 5677 5679 5681 5682 5685 5688 5691 5693 5696 5699 5701 5703 5706 5708 5710 5712 5715 5718 5721 5722 5724 5727 5729 5731 5733 5735 5737 5739 5740 5742 5744 5746 5748 5749 5751 5752 5752 5752 5752 5752 5752 5751 5750 5749 5749 5750 5750 5751 5750 5750 5750 5750 5749 5748 5747 5746 5746 5745 5743 5742 5741 5740 5739 5738 5736 5735 5733 5731 5729 5728 5727 5726
5649 5652 5654 5657 5659 5661 5663 5665 5666 5667 5668 5669 5672 5674 5675 5675 5676 5678 5680 5682 5685 5688 5690 5693 5695 5696 5699 5702 5704 5706 5709 5711 5714 5717 5718 5720 5722 5724 5726 5727 5729 5731 5733 5735 5736 5738 5740 5742 5743 5745 5746 5746 5746 5746 5746 5745 5744 5744 5744 5744 5745 5745 5745 5745 5744 5744 5744 5743 5742 5741 5740 5739 5738 5737 5736 5735 5734 5733 5731 5730 5729 5727 5725 5723 5722 5721 5719
5647 5649 5651 5653 5655 5657 5659 5662 5663 5664 5665 5667 5669 5671 5673 5675 5676 5677 5678 5680 5682 5684 5686 5689 5691 5693 5695 5697 5700 5702 5704 5707 5709 5711 5713 5715 5717 5718 5719 5721 5723 5726 5728 5729 5731 5732 5734 5736 5738 5739 5739 5739 5740 5740 5739 5739 5739 5739 5739 5739 5739 5740 5739 5738 5738 5738 5737 5737 5736 5735 5734 5733 5732 5731 5730 5729 5727 5726 5725 5724 5722 5720 5719 5717 5716 5714 5713
5645 5647 5649 5650 5652 5654 5656 5658 5660 5661 5663 5664 5666 5668 5670 5672 5674 5676 5677 5678 5679 5681 5683 5684 5686 5688 5690 5692 5694 5696 5698 5701 5703 5705 5708 5710 5711 5712 5714 5716 5718 5719 5721 5722 5724 5726 5728 5730 5731 5732 5733 5733 5734 5734 5734 5733 5734 5734 5733 5733 5733 5733 5733 5733 5732 5732 5731 5730 5730 5729 5729 5728 5727 5725 5724 5722 5721 5720 5719 5718 5717 5715 5713 5712 5710 5709 5707
5643 5645 5646 5648 5650 5651 5653 5655 5657 5658 5660 5662 5664 5666 5668 5669 5671 5673 5675 5676 5677 5679 5680 5681 5682 5684 5686 5688 5690 5692 5694 5696 5698 5699 5701 5704 5706 5708 5709 5711 5712 5713 5715 5717 5719 5721 5722 5723 5724 5725 5726 5727 5728 5728 5728 5728 5728 5728 5727 5727 5727 5727 5727 5727 5727 5726 5726 5725 5724 5724 5723 5722 5720 5719 5717 5716 5714 5713 5712 5712 5711 5709 5708 5706 5705 5703 5701
5640 5642 5644 5645 5647 5649 5650 5652 5654 5656 5658 5660 5662 5664 5665 5666 5668 5670 5671 5672 5674 5676 5678 5679 5681 5682 5684 5686 5688 5689 5691 5693 5695 5696 5697 5699 5701 5703 5705 5706 5708 5709 5711 5712 5714 5715 5716 5717 5718 5719 5720 5721 5722 5722 5722 5723 5723 5722 5722 5721 5721 5721 5721 5721 5721 5721 5720 5719 5718 5717 5716 5715 5713 5712 5711 5710 5708 5707 5706 5705 5704 5703 5702 5700 5699 5698 5696
5638 5639 5641 5642 5644 5646 5648 5649 5651 5652 5654 5656 5658 5660 5662 5663 5665 5667 5668 5669 5671 5672 5674 5676 5677 5679 5681 5683 5684 5686 5687 5689 5691 5692 5693 5694 5696 5698 5700 5701 5703 5704 5706 5707 5709 5710 5711 5712 5713 5714 5715 5716 5716 5717 5717 5717 5717 5717 5716 5716 5716 5716 5715 5715 5715 5715 5714 5713 5712 5711 5709 5708 5707 5706 5704 5703 5702 5701 5700 5699 5698 5697 5696 5694 5694 5693 5692
5636 5637 5638 5640 5641 5643 5645 5646 5647 5649 5651 5652 5654 5656 5658 5660 5661 5663 5665 5666 5668 5670 5671 5673 5674 5676 5678 5679 5680 5682 5683 5684 5686 5687 5688 5689 5691 5692 5694 5696 5698 5699 5701 5702 5704 5705 5706 5707 5708 5708 5709 5710 5710 5711 5711 5711 5711 5711 5711 5711 5711 5711 5710 5709 5708 5708 5708 5707 5706 5704 5703 5702 5701 5700 5699 5698 5697 5695 5694 5694 5693 5691 5690 5689 5688 5688 5687
5634 5635 5637 5638 5639 5641 5642 5643 5644 5646 5647 5649 5650 5652 5654 5655 5657 5659 5661 5662 5664 5666 5667 5669 5671 5672 5674 5676 5677 5678 5679 5680 5681 5682 5683 5685 5686 5688 5690 5691 5693 5695 5696 5698 5699 5700 5701 5702 5702 5703 5704 5704 5704 5705 5705 5705 5705 5706 5706 5705 5705 5704 5704 5703 5702 5702 5702 5701 5699 5698 5697 5696 5695 5694 5693 5692 5691 5690 5689 5688 5687 5686 5684 5683 5683 5682 5681
5634 5634 5635 5636 5638 5639 5640 5641 5642 5643 5644 5645 5647 5648 5650 5652 5653 5654 5656 5658 5660 5661 5663 5665 5666 5668 5670 5672 5673 5674 5675 5675 5676 5678 5679 5681 5682 5684 5686 5687 5689 5690 5692 5693 5694 5695 5696 5697 5698 5698 5698 5699 5699 5699 5699 5699 5700 5700 5699 5699 5698 5698 5698 5697 5697 5697 5696 5695 5694 5693 5692 5691 5690 5689 5688 5687 5686 5685 5684 5683 5682 5680 5679 5678 5678 5677 5676
5634 5635 5635 5636 5637 5637 5638 5639 5639 5641 5642 5643 5644 5645 5647 5648 5650 5651 5652 5653 5655 5656 5658 5660 5661 5663 5665 5666 5668 5669 5670 5671 5673 5674 5676 5677 5679 5680 5682 5684 5685 5686 5688 5689 5690 5690 5691 5692 5693 5693 5693 5693 5694 5694 5693 5693 5694 5694 5693 5693 5693 5692 5692 5691 5691 5691 5690 5690 5689 5688 5687 5686 5685 5684 5683 5681 5680 5680 5679 5678 5676 5675 5674 5673 5673 5673 5672
5634 5635 5636 5636 5637 5637 5637 5638 5639 5639 5641 5641 5641 5642 5643 5645 5646 5648 5649 5651 5651 5652 5653 5655 5657 5658 5660 5662 5663 5665 5667 5668 5669 5671 5672 5674 5675 5677 5678 5680 5681 5682 5683 5684 5685 5686 5687 5687 5687 5687 5688 5688 5688 5688 5688 5688 5689 5689 5688 5687 5687 5687 5687 5686 5686 5685 5684 5684 5683 5682 5681 5681 5680 5679 5678 5676 5675 5674 5674 5673 5671 5670 5669 5668 5668 5668 5667
5634 5635 5635 5636 5636 5637 5637 5638 5638 5639 5640 5640 5640 5640 5641 5642 5644 5645 5647 5648 5650 5651 5652 5653 5654 5656 5657 5659 5660 5662 5664 5665 5666 5668 5669 5670 5671 5673 5674 5675 5676 5677 5678 5679 5680 5681 5681 5681 5682 5682 5683 5683 5683 5683 5683 5683 5683 5683 5682 5682 5681 5681 5681 5681 5680 5680 5679 5679 5678 5677 5676 5675 5675 5674 5673 5672 5670 5669 5669 5668 5667 5665 5664 5663 5663 5663 5662
5633 5634 5635 5635 5636 5636 5637 5638 5638 5639 5639 5640 5640 5641 5641 5642 5643 5644 5645 5647 5648 5650 5651 5652 5653 5655 5656 5657 5658 5659 5661 5662 5664 5665 5666 5667 5668 5669 5669 5670 5671 5673 5673 5674 5675 5675 5676 5676 5676 5677 5677 5677 5677 5677 5677 5677 5677 5677 5677 5676 5676 5676 5676 5675 5675 5675 5674 5673 5672 5671 5671 5670 5669 5668 5668 5667 5665 5664 5664 5663 5662 5661 5660 5659 5659 5658 5658
5632 5633 5634 5634 5635 5636 5636 5637 5638 5638 5639 5640 5640 5641 5642 5643 5643 5644 5645 5646 5647 5649 5650 5651 5652 5653 5654 5655 5656 5657 5658 5659 5661 5662 5662 5663 5663 5664 5665 5666 5667 5668 5668 5669 5670 5670 5670 5671 5671 5672 5672 5672 5672 5672 5671 5672 5672 5672 5672 5671 5671 5671 5670 5670 5669 5669 5668 5667 5666 5666 5665 5664 5663 5663 5662 5661 5660 5660 5659 5658 5658 5657 5656 5655 5655 5654 5654
5631 5632 5633 5633 5634 5635 5635 5636 5637 5637 5638 5639 5640 5640 5641 5642 5643 5644 5645 5646 5647 5648 5649 5649 5650 5651 5652 5653 5653 5654 5655 5656 5657 5658 5658 5659 5659 5660 5660 5661 5662 5663 5664 5664 5665 5665 5665 5666 5666 5666 5667 5667 5667 5666 5666 5666 5666 5666 5666 5666 5666 5665 5665 5664 5664 5663 5662 5661 5661 5660 5659 5658 5658 5658 5657 5656 5655 5655 5655 5654 5653 5653 5652 5651 5651 5650 5650
5630 5630 5631 5632 5633 5633 5634 5634 5635 5636 5637 5637 5638 5639 5639 5640 5641 5642 5643 5644 5645 5646 5646 5647 5648 5648 5649 5650 5650 5651 5651 5652 5653 5653 5654 5654 5655 5655 5656 5657 5657 5658 5659 5659 5660 5660 5660 5661 5661 5662 5661 5661 5661 5661 5661 5661 5661 5661 5661 5660 5660 5659 5659 5658 5658 5657 5656 5655 5655 5654 5654 5653 5653 5653 5653 5652 5651 5650 5650 5650 5649 5649 5648 5648 5647 5647 5647
5629 5629 5629 5630 5631 5632 5632 5633 5633 5634 5635 5635 5636 5636 5637 5638 5638 5639 5640 5641 5642 5642 5643 5644 5644 5645 5645 5646 5646 5647 5647 5648 5648 5649 5650 5650 5650 5651 5652 5653 5653 5654 5654 5654 5655 5655 5656 5656 5656 5657 5656 5656 5657 5657 5656 5655 5655 5655 5655 5654 5654 5653 5653 5653 5652 5652 5651 5650 5649 5649 5649 5648 5648 5648 5648 5647 5646 5646 5646 5645 5645 5645 5644 5644 5643 5643 5643
5628 5628 5628 5629 5629 5629 5630 5631 5631 5632 5632 5633 5633 5634 5635 5635 5636 5637 5637 5638 5638 5639 5640 5641 5641 5642 5642 5643 5643 5643 5644 5644 5644 5645 5646 5646 5647 5648 5648 5648 5649 5649 5649 5650 5650 5651 5651 5651 5652 5652 5652 5652 5652 5652 5651 5650 5650 5650 5649 5648 5648 5648 5647 5647 5646 5646 5645 5645 5644 5644 5644 5643 5643 5642 5642 5642 5642 5641 5641 5641 5641 5640 5640 5640 5640 5640 5640
5627 5627 5627 5627 5628 5628 5628 5629 5629 5630 5630 5631 5631 5632 5632 5633 5633 5634 5634 5635 5635 5636 5637 5637 5638 5639 5639 5639 5639 5640 5640 5640 5641 5641 5642 5643 5643 5644 5644 5644 5645 5645 5645 5645 5646 5646 5646 5647 5647 5647 5647 5647 5646 5646 5646 5645 5644 5644 5644 5643 5643 5642 5642 5641 5641 5640 5640 5640 5640 5639 5639 5639 5638 5638 5638 5638 5638 5637 5637 5637 5637 5636 5636 5636 5636 5636 5636
5625 5625 5626 5626 5626 5626 5627 5627 5628 5628 5629 5629 5629 5630 5630 5630 5631 5631 5632 5632 5632 5632 5633 5634 5635 5635 5635 5635 5636 5636 5637 5637 5637 5638 5638 5639 5639 5639 5640 5640 5641 5641 5641 5641 5641 5641 5641 5642 5642 5641 5641 5641 5641 5640 5640 5640 5639 5638 5638 5638 5637 5637 5636 5636 5635 5635 5635 5635 5635 5635 5634 5634 5634 5633 5633 5633 5633 5633 5633 5633 5633 5633 5633 5633 5633 5633 5633
5624 5624 5624 5624 5624 5625 5625 5626 5626 5627 5627 5627 5628 5628 5628 5628 5628 5629 5629 5629 5629 5629 5630 5630 5631 5631 5631 5632 5632 5633 5633 5633 5633 5634 5634 5634 5635 5635 5635 5636 5636 5636 5636 5636 5636 5636 5636 5636 5636 5635 5635 5635 5635 5634 5634 5634 5633 5633 5632 5632 5631 5631 5631 5630 5630 5630 5630 5630 5630 5630 5630 5630 5629 5629 5629 5629 5629 5629 5629 5629 5629 5629 5629 5629 5629 5629 5629
5623 5623 5622 5622 5622 5623 5624 5624 5624 5624 5625 5625 5625 5625 5625 5625 5626 5626 5626 5626 5626 5626 5626 5626 5627 5627 5627 5627 5628 5628 5629 5629 5629 5629 5629 5630 5630 5630 5630 5631 5631 5630 5630 5630 5630 5630 5630 5630 5630 5630 5629 5629 5629 5628 5628 5628 5628 5628 5627 5627 5626 5626 5626 5626 5626 5626 5626 5626 5626 5626 5625 5625 5625 5625 5625 5625 5624 5624 5625 5625 5625 5625 5625 5625 5625 5625 5625
5621 5621 5620 5620 5621 5621 5622 5622 5622 5622 5622 5622 5622 5623 5623 5622 5622 5623 5623 5622 5622 5622 5622 5623 5623 5623 5623 5623 5623 5623 5623 5624 5624 5624 5624 5625 5625 5625 5625 5625 5625 5624 5624 5624 5624 5624 5624 5624 5624 5624 5623 5623 5622 5622 5622 5622 5622 5622 5622 5622 5621 5621 5621 5621 5621 5621 5621 5621 5621 5621 5620 5620 5620 5620 5620 5620 5620 5620 5620 5620 5621 5621 5621 5621 5620 5620 5620
5619 5618 5618 5619 5619 5619 5619 5619 5619 5619 5619 5619 5619 5620 5620 5619 5619 5619 5619 5619 5618 5618 5619 5619 5618 5618 5618 5618 5618 5618 5618 5619 5619 5619 5619 5619 5619 5619 5619 5619 5619 5618 5619 5619 5618 5618 5618 5618 5618 5617 5617 5617 5616 5616 5616 5616 5616 5616 5616 5616 5616 5616 5616 5616 5616 5616 5616 5616 5616 5615 5615 5615 5615 5615 5615 5615 5615 5615 5615 5615 5615 5616 5615 5615 5615 5615 5615